Theta_e
264 264 264 264 264 263 263 263 263 263 263 262 262 262 262 262 262 262 262 262 262 262 262 262 262 262 262 262 262 262 262 262 263 263 263 263 263 264 264 264 264 265 265 265 265 265 266 266 266 266 267 267 267 267 267 267 267 268 268 269 270 270 271
264 264 264 264 263 263 263 263 263 262 262 262 262 262 262 262 262 262 262 262 262 262 262 262 262 262 262 262 262 262 262 262 262 262 262 262 263 263 263 264 264 264 264 264 265 265 265 265 265 265 266 266 266 266 266 266 267 267 268 268 269 270 270
264 264 263 263 263 263 263 262 262 262 262 261 261 261 261 261 261 261 261 261 261 261 261 261 261 261 261 261 261 261 261 261 261 261 262 262 262 262 262 263 263 264 264 264 264 264 264 265 265 265 265 265 265 265 266 266 267 267 268 268 268 269 269
263 263 263 263 263 262 262 262 262 261 261 261 261 261 261 261 261 260 260 261 261 260 261 261 261 261 261 261 261 261 261 261 261 261 261 261 261 262 262 262 262 263 263 263 264 264 264 264 264 264 264 265 265 265 266 266 266 266 267 267 267 268 268
263 263 263 262 262 262 262 261 261 261 261 260 260 260 260 260 260 260 260 260 260 260 260 260 260 260 260 260 260 260 260 260 260 260 261 261 261 261 261 261 262 262 262 263 263 263 264 264 264 264 264 265 265 265 265 266 266 266 266 266 267 267 267
263 263 262 262 262 261 261 261 260 260 260 260 260 260 259 259 259 259 259 259 259 259 259 260 260 260 260 260 260 260 260 260 260 260 260 260 260 260 261 261 261 261 262 262 262 263 263 263 263 264 264 264 264 265 265 265 266 266 266 266 266 267 267
262 262 262 261 261 261 260 260 260 260 259 259 259 259 259 259 259 259 259 259 259 259 259 259 259 259 259 259 259 259 260 260 260 260 260 260 260 260 260 260 261 261 261 261 262 262 262 262 263 263 263 264 264 264 265 265 265 266 266 266 266 266 267
262 262 261 261 260 260 260 259 259 259 259 259 259 259 259 259 259 259 259 259 259 259 260 259 260 260 260 260 260 260 260 260 260 260 260 260 260 260 260 260 260 261 261 261 261 262 262 262 262 263 263 263 264 264 264 265 265 265 266 266 266 266 267
262 261 261 260 260 260 259 259 259 259 259 259 259 259 259 260 260 260 260 260 260 260 260 260 260 260 260 260 260 260 260 260 260 260 260 260 260 260 260 260 260 261 261 261 261 262 262 262 262 263 263 263 264 264 264 265 265 265 266 266 266 267 267
261 261 260 260 259 259 259 258 258 258 259 259 260 260 260 260 260 261 260 260 260 260 260 260 260 260 260 260 260 260 260 261 261 261 261 261 261 261 260 260 261 261 261 261 262 262 262 262 262 263 263 263 263 264 264 265 265 265 266 266 266 266 267
261 260 260 259 259 259 258 258 258 258 259 260 261 261 261 261 261 261 261 261 261 261 260 260 260 260 260 260 260 260 261 261 261 261 262 262 262 262 262 262 262 261 261 262 262 262 262 262 262 263 263 263 263 264 264 264 265 265 266 266 266 266 267
260 260 259 259 259 258 258 258 258 258 259 260 261 262 262 261 261 261 261 261 260 260 260 260 260 260 260 260 260 260 261 261 261 261 262 262 262 262 263 263 263 263 263 262 262 262 262 262 263 263 263 263 263 263 264 264 265 265 265 266 266 266 267
260 259 259 259 258 258 258 258 258 258 259 260 261 262 262 261 261 261 260 260 260 260 260 260 260 260 260 260 260 260 260 260 261 261 261 261 262 262 262 263 263 264 264 264 264 264 263 263 263 263 263 264 264 264 264 264 265 265 265 266 266 266 267
259 259 259 258 258 258 257 257 257 258 259 260 261 262 262 261 260 260 260 259 259 259 259 259 260 260 260 260 260 260 260 260 261 261 261 261 261 261 262 262 263 263 264 264 264 264 265 265 265 264 264 264 264 264 264 265 265 265 265 266 266 266 267
259 259 258 258 258 257 257 257 257 258 259 260 260 261 261 260 259 259 259 259 259 259 259 259 260 260 260 260 260 260 261 261 261 262 262 262 262 262 262 263 263 263 263 264 264 264 264 265 265 265 265 265 265 265 265 265 265 265 265 266 266 266 266
259 258 258 258 257 257 257 257 257 258 258 259 260 260 260 259 259 258 259 259 259 259 259 260 260 260 260 260 260 261 261 262 262 263 263 263 264 264 264 264 264 264 265 265 265 265 265 265 265 266 266 266 266 266 266 266 265 265 266 266 266 266 266
258 258 257 257 257 256 256 256 256 257 258 259 259 260 259 259 259 258 258 259 259 259 260 260 260 260 260 261 261 261 262 263 263 264 264 264 265 265 265 265 266 266 266 267 267 267 267 267 267 267 268 268 268 268 267 267 266 266 266 266 266 266 267
258 257 257 257 256 256 256 256 256 257 258 258 259 259 259 259 259 259 259 259 259 260 260 260 260 261 261 261 261 261 262 263 264 264 265 265 265 266 266 266 266 267 267 267 267 267 268 268 268 268 269 269 269 269 269 269 267 267 267 266 266 267 267
257 257 257 256 256 256 256 256 256 256 257 258 259 259 259 258 259 259 259 260 260 260 260 260 261 261 260 261 261 262 262 263 264 265 265 265 266 266 266 266 266 266 266 266 266 267 267 267 268 268 269 269 269 269 270 270 270 269 268 267 267 267 267
257 257 256 256 256 256 256 256 256 256 256 257 258 259 259 259 259 259 260 260 260 261 261 260 260 260 259 260 261 261 262 263 264 265 265 265 265 265 265 266 265 265 264 264 264 265 265 266 266 267 268 268 269 269 269 270 270 270 270 269 268 268 268
256 256 256 256 256 256 256 256 256 256 256 257 258 258 259 259 259 259 259 260 261 261 260 260 259 259 258 259 260 261 262 263 264 265 265 264 264 265 265 264 263 262 262 262 262 263 264 265 265 266 267 268 268 269 269 269 269 270 270 270 269 269 268
256 256 256 256 256 256 256 256 256 255 256 256 257 258 259 259 259 259 260 260 260 260 259 258 258 258 258 259 260 261 262 263 264 264 263 263 264 264 264 262 261 260 260 260 261 262 263 265 266 267 268 268 268 269 268 268 269 269 270 270 270 270 269
256 256 256 255 255 255 255 255 256 255 255 256 257 258 258 259 259 259 260 260 259 258 258 258 257 258 259 260 261 262 262 263 263 262 262 262 263 262 261 260 259 259 259 259 259 260 262 263 265 267 268 268 268 269 268 268 268 269 269 269 270 270 270
256 256 255 255 255 255 256 256 255 256 256 256 256 257 258 258 259 259 259 259 258 257 257 257 258 258 260 261 261 262 262 261 261 260 261 261 260 260 259 259 258 257 258 258 258 259 260 262 264 266 267 268 269 269 269 269 269 269 269 269 269 269 269
256 256 255 255 255 255 256 256 256 256 256 256 256 256 257 258 258 259 258 258 257 257 257 258 258 259 260 261 261 261 260 259 259 259 259 259 258 258 258 257 257 257 257 257 258 258 260 261 262 264 266 267 268 269 269 269 269 269 269 268 268 268 268
256 256 255 255 255 255 256 256 256 256 256 256 256 256 257 257 257 257 257 257 257 257 257 258 259 259 259 259 259 259 258 258 257 257 257 257 257 257 257 256 257 257 257 257 258 258 259 260 261 263 264 265 266 268 269 269 269 269 268 268 268 268 268
256 256 256 256 256 256 256 256 256 256 256 256 256 256 257 257 257 257 257 257 257 257 258 258 258 259 259 258 258 257 256 256 256 256 256 256 256 256 256 256 256 256 257 257 257 257 258 259 260 261 262 263 264 266 268 269 270 269 269 268 268 268 267
256 256 256 256 256 256 256 256 256 256 256 257 257 257 257 257 257 257 257 257 258 258 258 258 258 258 258 257 256 255 255 255 255 255 255 255 255 255 255 255 256 256 256 256 256 257 257 258 259 260 261 263 264 265 267 269 270 270 269 269 268 268 268
257 257 258 258 257 257 257 257 257 257 258 258 258 258 258 258 258 258 258 258 259 259 258 258 257 256 256 255 254 254 254 254 254 254 254 254 255 255 255 255 255 256 256 256 256 256 256 257 259 260 261 262 264 265 267 270 271 270 270 269 269 269 269
259 260 260 260 259 259 258 258 258 258 258 259 259 258 258 258 258 258 258 259 259 258 257 256 255 254 254 253 253 253 253 253 253 253 254 254 254 254 254 254 255 255 255 255 255 256 256 258 259 260 260 262 263 264 267 270 271 270 270 270 269 269 270
260 261 261 260 260 260 259 259 258 258 258 258 258 258 257 258 258 258 258 258 257 256 255 254 253 253 252 252 252 252 253 253 253 253 253 253 253 254 254 254 254 254 254 255 255 255 256 257 258 259 260 261 262 263 266 269 271 270 270 270 270 270 271
259 260 260 260 259 259 259 258 258 257 258 258 257 257 257 257 257 256 256 256 255 254 253 253 252 252 252 252 252 252 252 252 252 252 252 253 253 253 253 253 253 254 254 254 255 255 256 256 257 258 259 259 261 262 264 267 270 271 270 270 271 271 271
257 258 258 258 258 258 258 257 257 257 257 257 256 256 256 256 255 255 254 253 252 251 251 251 251 252 252 252 251 251 251 251 252 252 252 252 252 253 253 253 253 253 253 254 255 255 255 255 256 257 257 258 259 260 262 265 268 270 271 271 271 271 271
255 255 255 255 255 256 256 256 255 255 255 255 255 255 256 255 254 254 253 251 250 249 250 250 250 251 251 251 251 251 251 251 251 251 251 252 252 252 252 252 252 252 253 254 254 254 254 255 255 255 256 257 258 258 260 262 265 268 270 270 270 271 271
254 254 254 254 254 254 254 254 254 254 254 254 254 256 256 254 253 252 251 250 249 249 249 249 249 250 250 250 250 250 250 250 250 250 251 251 251 252 252 252 252 252 253 254 254 254 254 254 254 254 255 256 256 257 259 260 263 265 268 270 270 270 270
254 254 254 254 254 254 254 253 253 253 253 254 256 256 255 253 251 250 249 249 249 249 249 249 249 249 249 249 249 249 249 250 250 250 250 251 251 251 251 251 251 252 253 253 253 253 253 253 253 253 254 255 255 257 258 259 261 263 266 268 270 271 271
Wind_Speed
23 21 22 23 24 23 23 22 22 23 24 25 25 25 26 26 26 27 27 27 27 27 27 28 29 29 29 28 28 29 28 28 28 28 28 28 29 30 29 29 26 17 17 29 33 34 35 33 31 31 32 34 37 36 35 35 38 39 38 36 35 35 35
21 22 24 25 24 23 23 23 24 24 24 25 26 27 27 27 27 28 28 28 28 28 28 28 29 29 29 28 29 30 29 29 29 28 28 29 28 29 30 28 27 23 18 23 32 35 35 33 32 33 35 35 37 38 36 34 34 34 33 33 32 32 32
22 23 24 23 22 23 24 24 25 25 25 26 27 28 29 29 28 28 29 29 29 29 28 28 29 29 29 29 29 30 30 30 30 29 29 30 30 29 31 30 28 27 23 23 29 33 34 32 32 36 37 35 36 36 34 33 32 31 31 32 32 33 35
23 23 22 22 24 25 25 25 26 26 27 27 28 29 30 29 29 29 30 30 30 29 29 29 29 29 29 29 30 31 31 30 31 31 30 31 31 30 32 32 29 28 28 26 27 31 31 28 28 33 35 33 33 34 32 33 34 33 32 33 34 35 37
22 22 23 25 26 26 27 27 27 27 28 28 29 29 30 31 31 31 31 31 31 30 30 29 30 31 30 30 30 31 32 31 31 32 31 31 32 30 30 29 27 26 27 27 28 30 30 27 26 29 32 31 31 33 33 34 34 34 34 34 33 32 33
22 23 25 27 28 28 28 28 28 28 29 30 30 31 32 33 33 33 32 31 31 31 31 30 31 31 31 30 32 32 33 33 32 33 33 34 34 33 32 31 30 28 28 28 30 30 30 29 27 27 31 31 29 31 32 32 33 34 34 32 31 31 31
24 26 28 29 29 29 29 29 29 30 31 32 32 33 34 35 34 34 33 32 32 32 32 32 32 32 32 32 33 33 34 34 34 34 35 36 36 35 33 33 32 31 29 29 30 30 30 31 28 27 29 31 29 30 32 32 30 30 32 32 31 32 31
27 29 30 31 31 30 30 30 30 32 33 34 34 35 36 36 35 34 34 34 34 34 34 34 34 34 34 34 34 35 35 35 36 36 37 37 36 35 33 33 32 30 29 28 28 29 30 30 27 25 27 28 26 25 29 32 29 27 30 30 29 31 30
30 32 33 32 32 31 31 31 32 34 35 35 35 36 36 35 34 34 34 34 34 34 34 34 34 35 35 35 36 37 37 38 38 38 38 39 37 35 33 32 30 28 27 25 25 26 27 27 26 25 24 24 23 23 26 29 27 26 28 28 28 30 29
33 33 33 33 33 33 33 33 34 35 34 34 35 36 36 35 35 33 33 33 33 33 32 32 33 34 34 34 34 35 36 37 39 39 40 41 39 36 33 30 29 28 26 24 22 24 26 22 21 25 25 25 28 29 28 28 26 26 27 25 23 25 27
34 33 33 33 33 34 33 34 35 35 34 34 35 36 37 37 35 33 31 31 30 31 31 32 33 33 33 33 33 34 35 35 36 37 38 39 40 39 37 35 33 31 29 27 24 26 26 21 20 28 31 31 33 33 30 29 28 27 26 21 15 15 20
33 33 33 33 33 34 34 35 35 34 35 36 35 34 35 37 36 32 29 28 27 29 30 31 32 32 32 32 32 32 33 33 34 34 35 37 38 39 40 41 40 37 34 31 27 26 26 26 28 32 35 36 36 35 34 32 30 29 28 23 18 16 19
32 32 33 33 33 34 34 35 36 35 35 37 36 33 34 37 36 31 28 27 27 28 28 29 31 31 32 32 31 31 32 33 35 36 37 38 38 38 40 41 42 41 39 36 32 27 28 34 36 34 38 42 40 37 34 30 30 32 30 27 24 24 28
31 32 33 33 34 34 34 35 36 35 35 37 36 34 35 36 34 30 29 29 28 28 29 30 30 31 32 33 33 32 33 34 36 37 38 39 38 39 39 40 41 42 42 41 38 34 35 40 40 38 43 47 43 38 36 33 31 33 32 31 31 32 34
31 32 33 33 33 33 34 36 36 34 35 38 37 35 36 35 33 31 30 30 29 28 29 30 30 32 33 33 33 33 32 32 35 36 37 37 37 38 40 41 42 43 43 44 43 41 42 44 45 45 47 50 47 44 43 42 39 38 35 33 32 32 34
30 31 33 33 33 32 34 36 36 33 35 37 36 36 36 34 32 31 29 28 28 28 30 30 30 31 32 33 33 32 31 33 35 36 36 36 37 38 38 40 43 44 45 46 46 47 48 49 50 50 49 50 49 47 47 46 42 39 35 30 26 25 29
30 32 33 33 32 33 34 36 36 33 33 36 37 37 36 33 30 29 28 28 29 30 29 29 28 29 31 31 31 31 33 36 37 36 36 36 36 36 36 38 40 40 40 42 43 45 47 49 51 51 52 53 51 50 50 44 34 33 33 27 17 15 22
31 33 33 32 32 32 33 35 35 32 33 36 36 35 34 32 29 28 28 28 29 28 27 28 27 26 27 29 30 32 36 38 38 37 35 33 33 35 35 35 35 34 36 39 40 40 41 42 44 45 47 50 50 51 51 43 35 35 33 25 17 15 19
31 32 33 32 32 32 32 35 36 34 33 35 35 34 34 32 28 26 27 27 26 26 26 25 25 24 24 28 31 34 37 39 38 36 34 32 32 31 30 32 33 32 33 34 34 35 36 38 39 40 40 41 43 45 46 44 43 40 34 27 24 23 18
31 32 33 32 32 33 33 34 36 35 33 33 33 33 33 32 27 24 25 25 25 25 23 21 23 25 26 28 31 34 36 37 37 37 35 31 27 25 25 29 29 27 26 28 31 34 37 39 41 41 39 39 39 40 43 46 46 43 38 32 30 28 21
31 31 33 33 32 32 33 33 35 34 32 31 32 32 32 32 29 26 26 26 24 21 20 22 25 28 29 30 31 34 36 37 38 37 32 26 23 24 26 26 26 25 25 27 30 33 35 37 39 39 39 37 36 38 42 44 44 43 41 36 32 29 24
31 30 31 32 32 32 32 32 32 32 31 30 31 31 32 32 32 31 29 25 22 21 22 25 28 31 32 33 34 36 38 37 37 34 30 27 28 29 29 27 26 27 26 26 26 28 29 31 32 33 34 34 34 37 39 40 41 42 41 38 36 33 28
29 28 29 30 30 30 31 31 30 30 30 30 29 31 32 33 34 34 31 25 23 25 27 29 31 34 36 37 37 38 37 36 35 34 32 31 31 31 29 28 26 26 25 25 25 25 26 27 27 28 29 30 31 34 35 35 37 40 40 38 36 36 35
27 26 26 27 28 29 30 30 30 30 30 30 29 29 31 34 35 34 30 27 28 30 31 32 35 36 37 37 37 35 34 34 35 33 31 30 29 28 27 25 25 26 25 24 24 23 24 25 25 25 25 26 28 30 31 33 34 37 39 38 36 37 38
25 25 25 25 27 29 31 31 30 30 30 30 30 29 30 32 33 31 29 29 31 33 33 33 36 37 36 33 30 30 32 34 32 28 26 26 26 25 24 24 24 25 23 22 22 23 24 25 26 25 25 26 28 28 28 30 31 33 35 35 34 35 35
24 24 25 25 27 29 31 31 30 30 29 29 29 29 30 31 31 30 29 30 31 32 34 35 36 34 29 25 26 28 29 29 27 24 24 23 22 23 23 23 23 23 22 21 21 23 24 25 26 27 28 29 28 27 27 29 29 29 30 30 30 29 29
24 24 25 26 28 29 30 30 29 28 28 27 28 29 30 31 30 29 29 29 30 32 34 33 29 24 22 24 28 28 25 23 23 23 23 22 23 23 23 22 23 23 22 21 21 23 24 26 27 28 28 28 26 25 27 29 28 27 27 29 27 23 22
25 25 26 27 28 28 27 26 26 25 24 25 26 27 27 26 26 26 26 27 29 30 28 23 19 20 23 26 26 24 22 22 22 22 23 23 24 23 22 23 23 21 20 20 21 23 24 25 26 26 25 25 24 25 27 28 27 27 27 27 22 17 16
27 27 28 28 27 25 23 23 21 21 23 24 25 25 25 24 25 26 25 25 26 24 19 17 19 22 23 22 21 20 21 21 21 22 24 24 23 23 24 24 21 20 20 22 22 23 23 24 24 24 23 23 24 25 27 25 25 28 27 24 19 15 17
29 29 29 26 23 21 20 20 20 22 25 27 27 26 27 27 27 26 24 23 21 18 16 18 20 19 18 18 18 19 19 19 20 22 22 22 23 24 23 22 20 20 22 23 23 23 23 22 22 23 23 23 22 24 26 23 23 26 23 20 18 16 17
29 29 28 26 24 22 21 21 22 24 26 27 27 27 27 27 25 22 20 20 19 18 18 18 17 17 17 18 18 17 18 19 20 20 21 22 23 23 22 20 20 21 23 24 24 23 21 22 22 22 22 22 21 23 25 20 18 22 19 18 19 16 15
28 28 27 25 25 25 24 24 24 24 25 26 27 26 26 24 20 19 19 20 19 19 19 18 17 17 17 17 17 18 19 19 20 20 21 22 22 22 22 22 23 24 25 24 23 22 22 22 22 22 23 23 21 21 23 19 12 16 16 16 17 16 17
25 25 25 25 24 24 25 26 25 25 25 26 26 26 24 20 16 17 19 19 17 17 18 18 18 18 17 17 17 18 19 20 20 21 22 22 22 22 24 25 25 25 24 22 21 23 23 22 22 23 23 23 22 20 21 20 14 11 15 15 13 14 17
27 23 22 23 23 23 24 24 25 25 24 24 25 25 22 19 20 23 23 20 18 17 18 18 18 18 18 18 19 19 19 20 20 21 22 22 23 24 25 26 26 25 23 21 22 24 23 22 22 23 23 23 23 22 20 19 19 15 11 12 12 12 14
31 27 24 22 22 23 22 22 22 23 23 23 24 23 21 22 26 28 26 23 21 19 18 17 17 18 19 20 20 20 20 20 21 22 23 23 24 25 25 26 26 24 22 22 24 24 23 22 22 22 22 21 22 21 20 18 18 19 16 12 12 12 11
29 29 27 24 21 20 20 20 20 22 23 23 23 21 21 23 24 23 22 22 22 20 19 18 18 18 19 20 21 21 21 21 22 23 23 23 23 24 25 26 25 23 22 24 25 24 23 23 24 23 22 21 20 19 19 18 18 18 18 17 14 13 13
Wind_Direction
298 298 300 300 300 300 300 300 300 300 301 300 298 297 296 295 294 293 291 290 289 288 287 287 287 287 287 287 286 285 284 283 283 282 281 279 278 276 273 272 270 270 280 282 280 280 281 284 287 288 286 287 289 290 290 290 290 290 292 292 291 290 287
295 298 301 299 296 296 297 297 298 299 299 298 298 297 295 295 294 292 291 289 288 287 286 286 285 285 286 287 286 284 284 283 282 282 281 280 278 277 275 272 270 270 275 282 281 280 279 281 283 284 283 285 286 288 289 289 288 287 289 290 290 289 287
295 301 302 297 295 297 297 297 297 297 297 296 295 295 294 293 292 290 289 287 287 286 286 285 284 284 285 286 286 285 284 283 283 282 281 279 277 276 276 274 272 272 273 278 282 280 279 279 280 281 281 282 284 285 286 286 285 284 284 284 285 285 284
296 298 297 295 297 298 298 298 297 296 295 294 293 293 292 291 290 288 286 286 285 286 286 285 283 283 285 285 285 285 284 283 282 281 279 278 276 274 275 275 273 271 271 273 278 279 278 278 278 278 279 281 282 282 282 282 282 282 281 279 280 282 282
293 292 293 295 297 297 297 297 297 296 294 293 292 291 289 289 288 286 285 285 285 285 284 283 282 282 283 284 283 282 281 281 280 279 277 276 275 273 273 274 271 270 270 270 274 278 280 279 278 278 279 279 280 281 281 281 280 280 279 280 280 279 278
288 289 294 296 297 297 296 296 295 294 293 292 291 290 289 288 287 286 285 285 285 285 284 282 281 281 281 280 278 278 278 279 278 278 276 274 273 272 270 269 268 268 269 270 271 275 279 279 278 278 278 277 276 277 279 280 280 279 277 277 277 276 275
290 294 297 297 297 296 295 294 294 293 292 291 290 290 289 288 287 287 286 286 286 286 285 283 281 281 280 277 276 276 276 277 276 275 274 272 271 270 268 266 266 266 266 266 268 271 274 276 276 275 275 275 274 273 274 275 277 278 276 274 273 273 273
296 298 298 297 296 295 294 294 293 292 292 292 292 291 290 288 288 287 287 287 287 286 285 284 282 281 279 277 275 275 275 275 274 272 271 270 269 267 266 264 264 264 263 263 264 266 269 272 274 272 272 273 271 267 266 266 266 268 271 272 272 271 270
297 299 298 296 294 294 294 293 291 292 293 292 292 291 289 288 287 286 286 286 286 286 285 283 282 280 279 279 278 278 277 276 273 269 267 268 268 265 263 262 262 261 260 259 260 262 265 268 270 268 268 268 263 257 261 267 266 265 268 270 271 269 268
298 299 296 294 293 294 294 292 292 293 292 290 289 288 286 286 285 284 284 284 284 284 284 283 282 281 281 280 278 277 275 273 270 266 264 265 266 264 262 259 257 256 255 253 253 256 260 262 263 262 261 260 261 262 265 269 267 266 268 269 269 269 267
298 296 293 292 292 292 292 292 293 293 292 292 294 294 292 290 289 287 286 285 283 283 285 285 284 283 282 281 279 277 275 273 271 270 268 268 267 265 263 258 254 252 249 246 246 250 253 252 254 258 257 257 262 264 263 262 262 265 267 265 262 267 267
296 293 292 292 291 291 291 292 292 292 292 296 299 299 298 296 295 294 292 290 288 287 287 287 286 285 284 283 280 278 277 276 276 275 274 272 271 269 267 264 259 256 251 246 244 246 247 248 252 257 259 259 260 261 260 260 260 260 260 258 256 259 262
293 291 291 290 290 290 290 291 292 292 294 298 300 301 301 299 298 299 298 295 293 290 288 287 287 287 286 286 284 282 281 280 279 279 277 275 273 271 270 269 267 265 262 257 252 247 247 251 253 255 258 259 258 258 257 256 255 254 254 255 254 254 258
290 289 290 290 289 290 289 291 292 292 292 296 299 301 302 302 301 302 300 297 295 292 290 289 289 288 287 288 288 286 285 284 283 282 280 277 275 272 271 270 269 268 267 265 261 256 254 256 255 253 257 260 258 254 252 250 249 250 249 250 252 255 259
289 289 290 290 290 290 289 291 293 292 292 296 299 301 303 304 304 303 301 299 296 293 292 292 291 289 287 288 288 287 286 283 281 279 277 276 274 273 272 271 269 268 267 265 262 258 255 256 256 254 256 258 257 253 251 250 249 250 250 252 255 257 259
288 290 290 290 290 290 289 291 293 293 294 298 301 302 303 305 305 303 300 297 295 294 294 293 292 290 289 288 288 287 285 282 279 277 275 274 273 272 270 270 271 271 269 266 263 260 257 256 256 255 253 254 253 252 252 251 249 248 248 249 252 253 253
289 290 290 289 290 289 289 292 295 295 295 297 299 301 303 304 303 301 297 294 294 294 293 293 292 290 288 287 286 286 285 284 283 281 279 277 276 276 274 274 275 275 274 273 272 269 265 261 259 256 255 254 252 250 248 245 241 240 238 238 241 245 247
290 290 289 289 289 289 290 292 294 295 296 298 300 302 304 302 300 298 295 294 294 292 291 291 290 288 287 286 286 286 286 287 288 286 283 280 280 280 279 280 283 284 283 284 284 282 278 275 271 267 264 263 260 256 251 242 236 235 233 230 231 235 241
290 289 289 289 289 290 290 291 294 297 298 299 302 304 304 302 299 296 294 294 292 290 290 289 288 288 289 289 290 290 290 292 292 290 286 285 286 285 285 289 292 291 290 290 290 288 287 285 283 279 275 271 268 265 261 254 247 241 233 227 229 232 234
289 288 289 290 290 290 291 290 294 299 300 298 301 304 305 304 300 296 295 294 292 292 292 291 292 294 293 293 294 293 292 292 291 290 291 294 295 293 294 298 299 299 299 298 295 292 289 287 284 279 276 273 268 266 264 260 255 246 236 229 228 228 226
288 287 288 290 290 290 291 292 294 298 299 299 301 306 307 304 301 299 297 295 294 297 298 298 298 297 297 297 295 293 292 291 292 297 303 307 304 300 303 310 313 312 308 302 296 293 290 287 282 278 274 271 268 267 264 259 253 247 240 233 228 226 225
288 286 287 289 290 290 291 292 294 297 298 298 300 304 305 303 302 301 301 300 302 304 302 300 298 300 303 303 297 294 296 298 303 312 318 317 313 313 319 325 322 316 313 308 301 296 290 284 280 276 273 271 271 271 266 257 250 247 243 238 233 230 227
287 286 286 288 289 290 291 292 293 295 296 297 297 299 301 302 303 304 307 308 308 305 303 301 302 304 306 304 298 298 302 309 316 322 322 318 318 321 324 324 320 317 315 309 301 294 286 281 278 274 272 272 271 269 263 255 251 250 247 243 239 235 233
287 286 286 287 289 290 291 292 293 293 294 296 295 293 295 299 303 307 311 310 307 304 303 301 302 303 304 302 302 305 311 316 319 319 316 317 319 320 320 319 318 315 310 302 295 290 285 282 281 279 279 278 275 272 266 258 255 253 251 247 243 239 237
286 286 285 285 286 288 290 291 291 290 292 294 292 290 291 295 300 304 305 303 301 300 298 298 299 301 302 302 305 309 312 313 313 312 312 315 317 317 317 316 312 308 303 297 292 289 286 283 283 284 285 286 286 282 273 261 254 252 251 248 244 242 240
284 285 285 284 284 285 288 290 289 288 290 292 291 290 291 293 296 297 297 295 294 294 295 296 297 298 299 301 305 308 309 308 308 311 313 315 317 318 316 312 308 305 301 297 294 292 289 287 288 289 289 290 291 286 275 263 253 248 246 243 239 237 238
283 282 281 280 281 283 285 286 287 287 289 291 291 291 291 291 292 293 293 292 292 293 294 293 292 292 296 303 308 310 310 310 311 314 316 317 318 317 314 312 309 305 301 299 298 297 295 293 293 293 291 290 289 283 274 264 252 242 240 237 231 228 230
279 277 277 277 279 282 283 284 286 287 290 292 291 291 292 292 292 293 292 291 293 294 292 289 292 299 306 312 314 315 316 317 318 319 319 318 318 318 316 315 312 307 304 304 303 301 299 297 294 291 290 291 287 280 276 267 248 236 235 231 221 214 221
279 278 278 278 278 279 279 279 284 291 297 299 299 299 301 301 301 302 302 301 300 300 299 303 310 315 318 321 321 320 320 321 321 322 321 320 320 319 319 318 315 311 310 311 310 307 303 299 296 294 294 294 288 282 282 271 244 230 229 223 212 207 217
286 288 290 291 291 289 284 284 294 306 308 307 307 308 308 307 308 310 314 315 314 315 317 320 322 324 326 326 322 319 319 320 321 321 320 320 320 320 320 320 316 315 316 315 314 310 305 302 302 301 300 299 293 293 297 281 240 222 220 214 208 213 220
295 297 301 304 306 307 304 302 308 314 311 309 310 313 314 314 316 320 325 327 328 327 325 325 326 326 326 324 321 318 317 317 318 319 318 319 319 320 322 320 317 318 320 318 314 312 310 310 308 304 304 305 301 304 309 292 237 215 216 216 214 220 226
302 304 306 308 309 310 311 311 312 313 312 312 315 318 321 323 327 333 335 331 327 325 325 327 325 320 319 320 317 315 316 316 316 317 318 319 318 319 321 320 318 320 320 317 315 316 317 315 313 311 311 311 309 312 317 309 257 216 215 221 221 222 227
302 304 306 308 309 310 311 311 313 314 314 316 319 321 324 329 335 337 337 335 333 331 330 329 324 316 314 314 313 313 316 316 314 316 318 318 316 317 318 318 319 321 320 317 318 321 321 318 318 318 317 317 318 319 319 319 306 258 226 221 223 225 227
306 305 305 305 306 307 309 310 312 313 314 315 315 314 317 325 328 328 329 336 342 339 331 326 323 319 316 315 314 313 315 314 314 316 317 317 316 317 318 320 322 322 320 319 322 324 324 322 322 322 321 321 323 322 319 321 326 315 271 233 224 228 232
305 306 305 303 303 305 306 307 309 310 309 308 307 308 317 329 331 329 328 331 333 330 325 322 320 318 318 317 316 314 314 313 314 315 316 316 317 318 319 322 323 321 320 321 323 324 325 326 326 324 322 320 320 321 320 320 323 322 312 282 250 239 242
299 303 305 303 301 301 303 304 306 306 305 305 306 312 325 332 331 326 322 320 320 320 319 316 314 315 317 318 316 315 314 313 313 315 315 315 316 318 319 320 320 321 322 322 322 323 325 328 327 326 325 322 317 316 317 316 313 314 315 306 283 258 249